Location: Newark
(52.8300°N, 8.0000°E)
Time: 21:44:36
(UTC+00:00)

STARLINK-1074 - Pass Details

Date: 29 January 2020
Orbit: 348 x 351 km, 53.0° (Epoch: 18 February)

Event Time Altitude Azimuth Distance (km) Brightness Sun altitude
Rises 17:44:27 0° 283° (WNW) 2,164 8.0 -14.7°
Reaches altitude 10° 17:46:31 10° 277° (W) 1,319 6.8 -15.0°
Maximum altitude 17:49:19 42° 204° (SSW) 519 3.7 -15.4°
Enters shadow 17:50:49 22° 145° (SE) 827 4.3 -15.6°
